Location: Alafon
(8.4500°N, 4.2333°E)
Time: 09:44:11
(UTC+00:00)

A-11 Canister half - Pass Details

Date: 14 August 2021
Orbit: 1515 x 1685 km, 47.2° (Epoch: 21 September)

Event Time Altitude Azimuth Distance (km) Brightness Sun altitude
Rises 22:22:54 0° 304° (NW) 4,921 12.1 -59.2°
Reaches altitude 10° 22:26:19 10° 297° (WNW) 3,940 11.4 -59.8°
Enters shadow 22:28:15 17° 291° (WNW) 3,428 11.0 -60.1°
Maximum altitude 22:35:32 40° 232° (SW) 2,305 - -61.2°
Drops below altitude 10° 22:44:43 10° 166° (SSE) 3,906 - -62.6°
Sets 22:48:08 0° 158° (SSE) 4,875 - -63.1°
